Location: Arrington
(35.8681°N, 86.7092°W)
Time: 02:30:59
(UTC+00:00)

Cosmos 1862 - Pass Details

Date: 23 November 2019
Orbit: 538 x 557 km, 82.5° (Epoch: 07 December)

Event Time Altitude Azimuth Distance (km) Brightness Sun altitude
Rises 11:42:42 0° 180° (S) 2,684 7.1 -9.9°
Reaches altitude 10° 11:44:51 10° 178° (S) 1,795 6.2 -9.5°
Maximum altitude 11:48:46 70° 95° (E) 576 3.6 -8.7°
Drops below altitude 10° 11:52:42 10° 12° (NNE) 1,802 5.9 -8.0°
Sets 11:54:52 0° 10° (N) 2,698 6.7 -7.6°
